Wind_Speed
34 34 34 34 34 33 29 26 25 23 22 20 20 19 19 19 19 19 17 16 15 15 14 13 12 11 10 9 8 7 6 6 5 5 4 4 4 4 4 4 4 4 4 4 4 5 5 5 6
35 36 36 36 36 34 30 28 27 26 24 22 22 21 21 21 21 19 18 17 17 16 15 15 14 13 12 11 10 9 8 7 6 6 6 5 5 5 6 6 6 6 5 5 6 6 6 6 6
37 38 38 38 37 34 31 30 29 28 26 25 24 24 23 23 21 20 20 19 18 18 17 16 16 15 14 12 11 11 10 9 8 8 7 7 7 7 7 7 7 7 7 7 7 7 8 8 8
40 40 40 40 37 34 33 32 31 30 28 27 26 26 25 24 23 22 22 21 20 20 19 18 17 17 16 14 13 13 12 11 10 10 9 9 9 9 8 8 8 9 9 9 9 9 9 9 10
42 42 43 41 38 36 35 34 32 31 30 29 28 27 27 26 25 24 24 23 22 21 21 20 19 18 17 16 15 14 13 13 12 11 11 11 11 10 10 10 10 11 11 11 11 11 11 11 11
43 43 44 42 39 38 37 36 35 33 32 31 30 29 29 27 27 26 26 25 24 23 22 21 21 20 19 18 17 16 15 14 14 13 13 12 12 12 12 12 12 12 12 13 13 13 12 12 13
45 45 44 42 41 41 39 38 37 35 34 33 32 31 30 28 28 28 27 26 25 24 24 23 22 21 20 19 19 18 17 16 16 15 14 14 14 13 13 13 14 14 14 14 14 14 14 14 14
46 47 46 43 42 41 40 40 38 37 36 35 35 33 31 30 29 29 28 27 26 25 24 24 23 23 22 21 20 20 19 18 17 17 16 16 15 15 15 15 15 15 15 15 14 14 15 15 15
48 49 47 44 43 43 42 42 40 39 38 37 36 35 33 32 31 30 30 29 28 27 26 25 24 24 23 22 21 21 20 19 18 18 17 17 16 16 16 15 16 16 16 16 16 16 16 16 17
49 50 47 45 45 45 44 44 42 41 40 39 38 37 35 34 33 32 31 30 29 29 28 26 25 25 24 23 22 21 21 20 19 19 18 18 17 17 17 16 17 17 17 17 17 17 18 18 18
50 50 48 48 48 47 46 45 44 43 41 40 40 39 37 36 35 33 33 32 31 30 29 28 27 26 26 25 24 23 22 21 21 20 20 19 19 19 18 18 18 18 18 18 18 19 19 19 20
48 49 49 50 49 49 48 47 45 45 43 42 42 41 40 38 37 35 35 34 33 32 31 30 29 28 27 26 25 25 24 23 22 22 21 21 21 20 20 20 20 20 19 19 20 20 20 21 21
47 48 49 50 50 50 49 49 48 46 44 44 43 43 42 39 38 38 37 36 35 34 33 32 31 30 29 28 27 26 25 24 24 23 23 22 22 22 21 22 22 21 21 21 21 21 22 22 23
44 46 48 49 50 50 50 50 50 48 46 46 45 44 43 41 39 39 38 37 37 36 35 34 33 32 30 29 29 28 27 26 26 25 25 24 24 23 23 23 23 23 23 23 23 23 23 24 24
44 45 46 47 48 49 51 52 51 49 48 48 46 45 45 43 41 40 39 38 38 37 36 35 34 33 32 31 30 29 29 28 27 27 26 26 25 25 24 24 24 24 24 24 24 25 26 26 26
45 46 46 45 46 47 50 51 51 50 50 49 47 46 46 44 43 42 41 40 39 38 37 36 36 35 33 32 31 31 30 29 29 28 28 27 27 27 26 26 26 26 26 26 26 27 27 27 28
45 45 44 44 45 46 49 49 50 50 51 50 49 47 46 45 44 43 42 41 40 39 38 37 36 36 35 34 33 32 31 31 30 30 29 29 28 28 28 27 28 27 27 28 29 29 29 29 30
43 43 42 42 43 45 47 47 49 50 50 50 50 48 46 45 45 44 43 42 41 41 40 38 37 36 36 35 34 33 32 32 31 31 31 30 30 30 29 29 29 29 30 30 30 30 31 31 31
39 42 42 42 42 43 45 45 47 48 50 50 49 49 48 47 46 44 44 43 43 42 41 40 39 38 37 36 35 35 34 33 33 32 32 32 31 31 31 31 31 31 32 32 32 32 33 33 33
36 38 40 41 41 42 42 43 45 47 48 49 49 48 48 48 47 45 45 44 43 42 41 40 39 39 38 37 37 36 35 35 34 34 34 33 33 33 33 33 33 33 33 33 33 34 34 34 34
34 36 37 38 39 40 41 42 43 44 47 48 48 48 48 48 47 46 46 44 43 42 41 40 40 39 39 39 38 38 37 36 36 36 36 35 35 34 34 34 34 34 34 34 34 34 35 35 35
32 33 34 36 36 37 39 41 42 42 44 47 47 47 48 49 48 47 46 45 44 43 42 41 40 39 39 39 39 39 38 37 37 37 36 37 37 36 36 35 35 35 35 35 35 35 36 36 37
31 32 33 34 35 36 37 39 39 41 43 44 46 47 47 48 48 47 46 45 44 44 43 42 41 40 40 40 39 39 39 39 39 38 37 37 37 37 37 36 36 36 36 36 36 36 37 38 38
31 31 31 32 33 35 36 37 38 39 41 42 44 46 47 47 47 47 46 46 45 44 43 42 41 40 40 40 40 40 40 40 40 39 39 39 39 38 38 38 37 37 37 37 37 38 38 39 40
30 31 30 30 34 36 36 38 39 39 41 42 43 45 46 47 48 48 47 46 45 45 44 43 42 42 41 41 41 41 41 40 41 40 40 40 40 40 39 39 39 38 38 38 39 39 39 40 41
30 30 31 32 33 34 36 39 39 39 40 41 42 42 44 46 47 48 47 46 46 45 44 43 43 42 42 42 41 41 41 41 41 41 41 41 40 40 41 41 40 40 40 40 40 40 41 42 43
30 30 30 31 31 33 35 37 39 39 40 41 43 43 43 45 46 46 47 47 47 46 45 44 44 43 42 42 42 41 41 41 41 41 41 41 41 41 41 41 41 41 41 41 42 42 42 43 44
29 29 30 30 29 31 34 35 37 38 38 40 42 42 42 43 44 46 46 47 47 47 46 45 45 44 43 42 42 42 41 41 41 41 42 42 42 42 42 42 41 42 42 43 43 44 44 44 45
28 29 30 30 30 31 31 33 36 37 38 39 40 41 42 43 44 45 46 47 47 47 47 46 45 45 44 44 43 42 41 41 42 42 43 43 43 43 43 43 43 43 43 44 45 46 46 46 46
27 29 30 30 31 31 32 32 32 33 35 37 39 40 41 42 43 45 46 46 46 47 47 46 46 46 45 45 44 43 42 42 42 42 43 44 44 44 44 44 45 45 45 45 46 47 47 48 48
Wind_Direction
233 233 232 232 233 234 234 234 233 232 233 234 234 233 233 234 234 233 230 226 223 223 222 221 223 224 224 224 223 222 223 225 225 228 235 245 258 265 268 274 280 290 301 308 317 323 325 328 328
233 233 233 233 234 234 234 233 234 234 234 234 235 234 233 233 233 233 231 228 226 225 226 225 226 228 229 229 228 227 229 234 236 240 245 252 261 269 271 274 278 283 291 298 303 309 311 313 317
234 234 234 234 234 234 235 234 234 234 233 234 234 234 234 234 234 233 232 231 229 228 229 230 230 232 233 233 233 234 236 239 243 249 252 254 261 268 271 273 275 279 285 291 295 298 300 304 308
234 233 234 234 234 234 234 235 234 233 233 234 235 235 235 236 235 234 234 233 232 231 231 232 233 234 236 237 238 240 242 244 247 251 255 258 262 268 269 272 275 278 283 287 290 292 294 297 300
234 234 235 234 234 234 234 235 234 234 233 233 234 236 236 235 235 235 235 235 234 234 233 234 234 235 237 239 241 243 245 247 249 252 256 259 263 267 269 271 273 277 281 285 287 289 291 294 295
234 234 235 235 234 234 234 235 234 234 234 234 234 235 237 234 235 235 235 235 235 235 234 234 235 236 237 239 242 244 247 248 250 252 256 259 262 265 268 271 274 277 279 281 283 285 288 291 292
235 235 235 235 234 234 234 235 234 233 234 234 234 235 236 234 234 235 235 235 234 235 235 235 235 236 237 240 242 245 247 249 251 253 255 258 262 266 269 273 275 276 278 279 281 283 285 288 290
235 235 234 234 234 235 234 235 234 233 233 233 234 234 235 235 234 235 235 235 234 233 234 235 235 236 238 241 243 245 247 249 251 253 255 258 262 265 270 274 275 276 277 278 280 282 285 288 290
235 235 234 234 235 235 234 235 235 233 233 233 234 235 235 235 235 235 235 234 233 233 234 235 236 237 238 241 243 245 247 249 252 253 255 259 262 266 270 273 275 276 277 278 280 282 284 287 289
235 236 235 234 235 235 234 234 234 234 233 232 233 235 234 234 234 234 235 234 234 234 234 235 237 238 239 241 243 245 247 249 251 253 255 258 262 266 269 272 274 276 278 279 280 281 283 285 287
236 236 235 234 234 235 234 234 233 233 233 232 233 233 234 234 234 233 233 234 233 234 235 235 237 238 240 241 242 244 247 250 252 254 256 259 263 266 269 271 273 276 278 279 280 281 282 283 285
237 236 235 234 234 234 234 234 234 233 233 233 232 233 233 233 233 233 233 233 233 234 235 236 237 239 240 241 243 245 247 250 252 255 257 260 263 266 269 270 272 275 277 278 280 282 282 283 284
236 235 235 234 234 234 234 233 233 232 233 233 233 233 233 233 232 232 232 233 233 234 235 237 238 239 241 242 243 245 248 250 252 255 258 261 263 266 268 270 271 273 275 277 278 280 282 284 284
235 235 234 234 234 233 233 233 233 232 232 232 233 233 232 232 232 232 233 233 234 234 235 237 238 240 242 243 244 246 248 251 253 256 258 260 263 265 268 272 272 273 274 275 277 279 281 282 283
234 234 233 233 233 233 233 232 232 231 231 231 231 232 232 231 232 232 232 233 234 234 236 237 239 241 242 244 245 247 249 251 253 255 258 261 263 265 269 272 274 273 274 275 278 279 280 281 282
234 234 233 232 233 233 233 233 231 231 230 230 230 231 232 231 232 232 232 233 234 234 236 237 239 241 243 245 246 248 250 251 253 255 258 260 263 265 268 271 273 275 274 276 278 279 281 281 282
233 233 234 233 232 232 234 233 231 231 230 229 229 230 231 231 232 232 233 233 234 234 236 238 239 241 243 245 247 248 250 251 253 255 258 260 263 265 267 270 273 275 275 276 278 278 280 281 282
233 233 233 234 234 234 234 233 231 231 231 230 230 230 230 231 232 232 233 233 234 235 236 238 239 241 243 245 246 248 250 252 254 255 257 259 262 265 267 271 272 274 275 276 278 279 280 281 281
234 234 234 235 236 236 236 234 232 231 231 230 230 230 231 231 232 232 233 234 235 236 237 239 240 242 243 244 246 248 250 252 254 256 258 260 263 264 267 269 271 273 274 276 277 279 280 281 282
232 234 235 236 237 238 237 235 233 232 231 230 229 230 231 231 232 233 234 235 236 237 238 239 240 241 243 244 246 248 250 252 254 256 258 260 263 265 267 269 270 272 275 276 277 278 280 281 282
232 234 234 236 237 238 238 236 233 232 231 229 229 230 231 232 233 233 234 235 236 237 238 240 241 242 243 245 247 249 251 253 254 255 257 259 262 265 267 269 270 272 274 276 277 278 280 281 283
232 233 234 235 236 236 237 238 233 233 233 231 229 230 231 233 233 233 234 235 236 237 238 239 240 241 243 245 247 249 251 253 254 255 257 259 262 264 266 269 271 272 274 276 277 278 280 281 283
231 232 234 235 237 238 237 239 235 235 234 233 231 231 231 233 234 234 234 235 236 237 238 239 241 242 244 246 248 250 251 252 254 255 257 260 262 264 266 269 270 272 274 275 277 278 280 282 283
232 232 235 237 238 239 238 240 237 235 235 233 233 232 232 233 233 234 234 234 236 237 239 240 242 243 245 247 248 250 252 253 254 256 257 259 261 263 265 268 270 272 274 275 276 278 280 282 284
232 232 232 236 237 238 238 240 239 236 236 234 233 233 233 233 233 234 234 235 236 238 239 241 242 244 245 247 249 251 253 254 254 256 257 259 261 263 265 268 269 271 273 275 276 278 280 282 284
231 234 235 239 241 240 239 241 241 238 236 236 234 233 234 234 234 235 235 236 236 237 239 241 242 244 246 248 250 252 253 254 256 257 258 259 261 263 266 268 270 271 272 274 277 279 281 283 285
231 233 235 239 242 242 242 243 242 240 238 238 236 234 234 235 235 235 235 236 236 237 239 241 242 244 246 248 250 252 254 255 257 258 259 260 262 264 266 268 270 272 273 275 277 279 281 284 285
232 234 234 237 239 242 245 246 245 243 242 240 238 237 236 236 235 236 236 236 237 238 239 241 242 244 246 248 250 252 254 255 257 258 260 262 263 265 267 269 270 272 274 276 277 279 281 283 285
230 233 235 237 238 241 245 247 247 245 244 242 240 239 237 237 236 236 236 236 237 238 239 241 242 244 245 248 250 252 254 255 257 259 261 263 265 266 267 269 271 273 275 277 278 280 282 283 285
235 234 235 237 238 240 244 248 247 247 245 244 242 241 239 238 237 237 237 237 238 239 240 242 243 244 245 247 250 251 253 256 258 260 262 264 265 266 268 269 271 273 275 277 279 281 282 283 285
Height
5812 5814 5817 5820 5823 5826 5830 5834 5837 5839 5842 5844 5846 5847 5849 5850 5852 5856 5857 5858 5860 5862 5863 5865 5866 5868 5869 5870 5871 5872 5873 5874 5874 5875 5876 5876 5877 5877 5878 5878 5878 5878 5878 5878 5878 5878 5878 5878 5877
5806 5809 5812 5814 5817 5821 5826 5830 5833 5835 5838 5841 5843 5844 5846 5847 5849 5851 5853 5855 5858 5860 5861 5863 5865 5866 5867 5869 5870 5871 5872 5873 5873 5874 5875 5876 5876 5877 5877 5877 5878 5878 5878 5878 5878 5877 5877 5877 5877
5799 5802 5805 5808 5811 5817 5822 5825 5828 5831 5834 5837 5839 5841 5843 5844 5846 5848 5851 5853 5855 5857 5859 5861 5863 5864 5865 5867 5868 5869 5870 5871 5872 5873 5874 5874 5875 5876 5876 5877 5877 5877 5877 5877 5877 5877 5876 5876 5875
5792 5795 5798 5802 5807 5813 5816 5819 5822 5826 5829 5832 5835 5837 5839 5842 5844 5846 5848 5850 5852 5854 5856 5858 5860 5862 5863 5865 5866 5868 5869 5870 5871 5871 5872 5873 5873 5874 5875 5875 5875 5876 5876 5876 5875 5875 5875 5874 5874
5784 5787 5791 5795 5802 5807 5810 5813 5817 5820 5824 5827 5830 5832 5835 5838 5840 5842 5844 5846 5849 5851 5853 5855 5857 5859 5861 5862 5864 5866 5867 5868 5869 5870 5870 5871 5872 5872 5873 5874 5874 5874 5874 5874 5874 5874 5873 5873 5873
5776 5780 5784 5789 5796 5800 5804 5807 5811 5815 5818 5822 5825 5827 5830 5834 5836 5838 5840 5843 5845 5848 5850 5852 5854 5856 5858 5860 5861 5863 5864 5865 5866 5867 5868 5869 5870 5871 5871 5871 5872 5872 5872 5872 5872 5872 5871 5871 5871
5769 5772 5777 5783 5788 5793 5798 5801 5805 5809 5812 5816 5819 5822 5825 5829 5831 5833 5836 5839 5841 5844 5846 5848 5851 5853 5855 5857 5858 5860 5861 5863 5864 5865 5866 5867 5868 5868 5869 5869 5869 5869 5870 5870 5869 5869 5869 5869 5868
5759 5764 5769 5775 5780 5786 5790 5793 5797 5802 5806 5810 5812 5816 5820 5824 5826 5829 5831 5834 5837 5840 5842 5845 5847 5849 5851 5853 5855 5857 5858 5860 5861 5862 5863 5864 5865 5866 5866 5866 5867 5867 5867 5867 5867 5867 5866 5866 5866
5749 5755 5761 5769 5773 5778 5782 5785 5790 5794 5798 5803 5806 5811 5815 5818 5821 5824 5827 5830 5833 5836 5838 5841 5843 5846 5848 5850 5852 5853 5855 5857 5858 5859 5860 5861 5862 5863 5863 5864 5864 5864 5864 5864 5864 5864 5864 5863 5863
5739 5745 5755 5760 5764 5768 5772 5777 5783 5787 5791 5796 5800 5804 5808 5812 5815 5819 5822 5825 5828 5831 5834 5837 5839 5842 5844 5846 5848 5850 5852 5853 5854 5856 5857 5858 5859 5860 5860 5861 5861 5861 5861 5861 5861 5861 5861 5860 5860
5730 5738 5745 5749 5754 5758 5763 5769 5774 5779 5784 5788 5793 5797 5801 5805 5809 5813 5816 5820 5823 5826 5829 5832 5835 5837 5840 5842 5844 5846 5848 5849 5851 5852 5853 5854 5855 5856 5857 5857 5857 5858 5858 5858 5857 5857 5857 5857 5857
5721 5727 5733 5738 5744 5749 5754 5760 5765 5770 5776 5780 5784 5789 5794 5799 5803 5807 5810 5814 5817 5821 5824 5827 5830 5832 5835 5838 5840 5842 5844 5846 5847 5848 5849 5851 5851 5852 5853 5853 5854 5854 5854 5854 5854 5854 5853 5853 5853
5710 5717 5722 5727 5733 5739 5744 5750 5755 5762 5768 5772 5777 5782 5787 5792 5796 5800 5804 5808 5812 5815 5818 5822 5825 5827 5830 5833 5835 5838 5840 5841 5843 5844 5845 5846 5847 5848 5849 5849 5849 5850 5850 5850 5850 5850 5849 5849 5848
5701 5706 5711 5716 5722 5728 5734 5740 5746 5754 5758 5763 5768 5774 5779 5784 5789 5793 5798 5802 5806 5809 5813 5816 5819 5822 5825 5828 5830 5833 5835 5836 5838 5839 5840 5842 5843 5843 5844 5844 5845 5845 5845 5845 5845 5845 5845 5844 5844
5690 5695 5700 5706 5711 5717 5722 5729 5737 5744 5748 5754 5760 5765 5771 5777 5782 5786 5791 5795 5799 5803 5807 5810 5813 5817 5819 5822 5825 5827 5829 5831 5833 5834 5835 5837 5838 5838 5839 5839 5840 5840 5840 5840 5840 5840 5840 5839 5839
5680 5684 5690 5698 5702 5707 5713 5719 5727 5732 5738 5745 5751 5757 5763 5769 5774 5779 5784 5788 5793 5797 5800 5804 5807 5811 5814 5816 5819 5821 5823 5825 5827 5829 5830 5831 5832 5833 5834 5834 5834 5834 5835 5835 5835 5835 5834 5833 5833
5670 5676 5682 5688 5693 5697 5702 5709 5717 5722 5728 5735 5742 5748 5754 5760 5766 5771 5776 5781 5786 5790 5794 5797 5801 5805 5808 5810 5813 5815 5817 5819 5821 5823 5824 5825 5826 5827 5828 5828 5828 5829 5829 5829 5829 5829 5828 5828 5827
5664 5669 5674 5679 5684 5689 5693 5699 5706 5712 5719 5726 5733 5739 5746 5752 5758 5763 5769 5774 5778 5783 5787 5791 5794 5798 5801 5804 5806 5809 5811 5813 5815 5816 5818 5819 5820 5821 5822 5822 5822 5823 5823 5823 5823 5822 5822 5821 5820
5657 5661 5666 5672 5676 5680 5685 5690 5697 5703 5709 5717 5724 5731 5738 5744 5750 5755 5760 5766 5770 5775 5779 5783 5787 5791 5794 5797 5800 5802 5804 5806 5808 5810 5811 5812 5814 5814 5815 5816 5816 5816 5816 5816 5816 5815 5815 5814 5813
5648 5653 5658 5663 5668 5672 5677 5682 5688 5694 5700 5708 5716 5722 5729 5736 5741 5747 5752 5758 5763 5768 5772 5776 5780 5783 5787 5790 5792 5795 5797 5799 5801 5803 5804 5805 5807 5807 5808 5809 5809 5809 5809 5809 5809 5808 5807 5807 5806
5642 5647 5652 5656 5660 5664 5669 5674 5680 5686 5692 5699 5707 5714 5720 5727 5733 5739 5744 5750 5755 5760 5765 5769 5772 5776 5779 5782 5785 5787 5790 5792 5794 5796 5797 5798 5799 5800 5801 5801 5801 5802 5802 5801 5801 5801 5800 5799 5798
5637 5642 5646 5649 5653 5657 5662 5666 5673 5679 5684 5691 5699 5706 5712 5718 5724 5730 5736 5742 5747 5752 5756 5761 5764 5767 5771 5774 5777 5780 5782 5785 5786 5788 5789 5791 5791 5792 5793 5793 5794 5794 5794 5794 5793 5793 5792 5791 5790
5632 5636 5640 5643 5646 5650 5654 5658 5666 5671 5677 5684 5691 5697 5703 5709 5716 5722 5728 5734 5739 5743 5748 5752 5756 5760 5763 5766 5769 5771 5774 5776 5778 5780 5782 5783 5784 5784 5785 5786 5786 5786 5786 5786 5785 5785 5784 5783 5781
5626 5631 5634 5637 5639 5643 5648 5652 5658 5663 5670 5676 5682 5688 5695 5701 5707 5713 5719 5725 5730 5735 5739 5744 5748 5752 5755 5758 5760 5763 5766 5768 5770 5772 5773 5774 5775 5776 5777 5777 5777 5777 5777 5777 5777 5776 5775 5774 5772
5620 5624 5628 5629 5632 5637 5643 5645 5651 5658 5663 5668 5675 5680 5686 5692 5699 5704 5710 5716 5722 5727 5731 5736 5740 5743 5746 5749 5752 5754 5757 5759 5761 5763 5764 5766 5767 5768 5768 5768 5768 5769 5769 5768 5768 5767 5766 5765 5763
5615 5619 5623 5625 5628 5633 5636 5638 5645 5651 5656 5661 5667 5673 5678 5684 5690 5696 5702 5708 5713 5718 5723 5727 5731 5734 5737 5740 5743 5745 5748 5750 5752 5754 5756 5757 5758 5759 5759 5759 5759 5759 5759 5759 5758 5758 5757 5755 5754
5609 5613 5618 5621 5623 5626 5629 5633 5639 5643 5649 5653 5659 5664 5670 5675 5681 5687 5693 5699 5704 5709 5714 5718 5722 5725 5728 5731 5734 5737 5739 5741 5743 5745 5746 5747 5748 5749 5750 5750 5750 5750 5750 5749 5749 5748 5747 5745 5744
5605 5609 5612 5614 5617 5619 5623 5628 5632 5637 5641 5646 5651 5657 5662 5667 5672 5678 5684 5689 5694 5700 5704 5709 5713 5716 5719 5722 5725 5728 5730 5732 5734 5735 5737 5738 5739 5739 5740 5740 5740 5740 5740 5739 5738 5737 5736 5735 5733
5600 5603 5606 5609 5611 5615 5617 5623 5625 5629 5634 5638 5643 5648 5653 5658 5663 5668 5674 5679 5685 5690 5695 5699 5703 5707 5710 5713 5716 5718 5721 5723 5724 5726 5727 5728 5729 5729 5730 5730 5730 5730 5729 5729 5728 5727 5725 5724 5722
5594 5598 5601 5604 5606 5609 5612 5618 5619 5622 5626 5630 5635 5639 5644 5649 5654 5659 5665 5670 5675 5680 5685 5689 5693 5697 5700 5703 5706 5709 5711 5713 5714 5716 5717 5718 5719 5719 5719 5720 5719 5719 5719 5718 5717 5716 5714 5712 5710